STARLINK-1449 (45666 NORAD) Tracking and Keplerian Element Data

This shows tracking and keplerian element data for the satellite.

Feedback or suggestion? Click here.




ElementValue
Catalog45666
NameSTARLINK-1449
Epoch Orbit655
Epoch Day192.16668981
Epoch Year2020
RAAN353.7176
Inclination53.0012
Eccentricity0.0001369
Argument of Perigee81.8265
Mean Anonmoly94.2776
Mean Motion15.32794563
Decay Rate-0.01072726
L11 45666U 20035K 20192.16668981 -.01072726 00000-0 -36418-1 0 9996
L22 45666 53.0012 353.7176 0001369 81.8265 94.2776 15.32794563 6557

Live tracking and technical data element details for STARLINK-1449 (NORAD 45666). STARLINK-1449 can be tracked NOW for your location showing map with azimuth and elevation plus other details from your city location.

Track the satellite on the map from your city or location and see movement details for azimuth, elevation, latitude, longitude, range, height, and movement on the map or in text.







IsCatalogInMostPopularTable: catalog: 45666, numindb: 8
Update: records affected: 1



GetName: 45666 STARLINK-1449

Hit Count: updated at: Fri, 10 Jul 2020 14:58:59 GMT